This is the latest recevied weather packets stored in our database for station/object K6HFP. If no packets are shown the sender has not sent any weather packets the latest 10 day(s).
| Time | Temp. | Humidity | Pressure | Rain* | Wind** | Luminosity | Snow |
|---|---|---|---|---|---|---|---|
| 1777752307 | 23.33° C | 35% | 1010.8 hPa | 0 mm | - | 958 W/m² | - |
| 1777752005 | 23.33° C | 35% | 1011 hPa | 0 mm | - | 962 W/m² | - |
| 1777751702 | 23.33° C | 35% | 1010.9 hPa | 0 mm | - | 967 W/m² | - |
| 1777751397 | 23.33° C | 37% | 1010.9 hPa | 0 mm | - | 983 W/m² | - |
| 1777751095 | 23.33° C | 37% | 1011.1 hPa | 0 mm | - | 868 W/m² | - |
| 1777750790 | 23.33° C | 38% | 1010.9 hPa | 0 mm | - | 848 W/m² | - |
| 1777750488 | 23.33° C | 40% | 1010.9 hPa | 0 mm | - | 923 W/m² | - |
| 1777750184 | 23.33° C | 40% | 1011 hPa | 0 mm | - | 901 W/m² | - |
| 1777749881 | 22.78° C | 43% | 1011.2 hPa | 0 mm | - | 814 W/m² | - |
| 1777749577 | 22.78° C | 42% | 1010.6 hPa | 0 mm | - | 938 W/m² | - |
| 1777749275 | 22.22° C | 44% | 1011 hPa | 0 mm | - | 902 W/m² | - |
| 1777748973 | 22.22° C | 42% | 1011.1 hPa | 0 mm | - | 902 W/m² | - |
| 1777748670 | 21.67° C | 42% | 1011.2 hPa | 0 mm | - | 903 W/m² | - |
| 1777748366 | 21.67° C | 40% | 1011.3 hPa | 0 mm | - | 850 W/m² | - |
| 1777748061 | 21.11° C | 41% | 1011.3 hPa | 0 mm | - | 896 W/m² | - |
| 1777747759 | 21.11° C | 42% | 1011.2 hPa | 0 mm | - | 879 W/m² | - |
| 1777747454 | 20.56° C | 52% | 1011.2 hPa | 0 mm | - | 832 W/m² | - |
| 1777747151 | 20° C | 52% | 1011.3 hPa | 0 mm | - | 735 W/m² | - |
| 1777746847 | 19.44° C | 55% | 1011.4 hPa | 0 mm | - | 715 W/m² | - |
| 1777746542 | 19.44° C | 61% | 1011.2 hPa | 0 mm | - | 717 W/m² | - |
| 1777746238 | 18.89° C | 62% | 1011.4 hPa | 0 mm | - | 518 W/m² | - |
| 1777745934 | 18.89° C | 64% | 1011.3 hPa | 0 mm | - | 472 W/m² | - |
| 1777745633 | 18.89° C | 66% | 1011.3 hPa | 0 mm | - | 380 W/m² | - |
| 1777745331 | 18.89° C | 67% | 1011.3 hPa | 0 mm | - | 568 W/m² | - |
| 1777745028 | 17.78° C | 69% | 1011.5 hPa | 0 mm | - | 559 W/m² | - |
* Rain latest hour (hover to see other rain measurements)
** Current wind speed in m/s (hover to see current wind gust speed)